Location: Newark
(34.1333°N, 7.9667°W)
Time: 11:32:20
(UTC+00:00)

Vanguard 2 Rocket - All Passes

Search period start: 13 June 2021 00:00
Search period end: 23 June 2021 00:00
Orbit: 554 x 3325 km, 32.9° (Epoch: 13 June)

Date Brightness Start Highest point End Pass type
(mag) Time Alt. Az. Time Alt. Az. Time Alt. Az.
13 Jun - 00:44:05 10° W 00:56:09 82° S 01:02:42 10° E visible
13 Jun - 03:02:08 10° W 03:09:24 40° SSW 03:14:01 10° SE visible
13 Jun - 16:58:32 10° SSE 17:06:31 14° SE 17:14:03 10° ESE daylight
13 Jun - 19:05:53 10° SSW 19:23:17 39° SSE 19:36:15 10° E daylight
13 Jun - 21:21:59 10° WSW 21:40:02 68° SSE 21:50:49 10° E visible
13 Jun - 23:41:23 10° W 23:55:49 85° S 00:03:37 10° E visible
14 Jun - 02:00:20 10° W 02:09:58 59° SSW 02:15:29 10° ESE visible
14 Jun - 04:19:00 10° WSW 04:21:53 14° SW 04:24:19 10° SSW visible
14 Jun - 18:05:35 10° SSW 18:21:38 31° SE 18:34:59 10° E daylight
14 Jun - 20:19:41 10° SW 20:38:37 59° SSE 20:51:01 10° E visible
14 Jun - 22:38:25 10° WSW 22:55:06 83° S 23:04:22 10° E visible
15 Jun - 00:58:05 10° W 01:10:08 75° SSW 01:16:41 10° ESE visible
15 Jun - 03:16:31 10° W 03:22:53 27° SW 03:27:13 10° SSE visible
15 Jun - 17:06:29 10° S 17:20:02 23° SE 17:32:27 10° E daylight
15 Jun - 19:17:59 10° SW 19:36:56 51° SSE 19:50:46 10° E daylight
15 Jun - 21:35:29 10° WSW 21:53:57 78° SSE 22:04:54 10° E visible
15 Jun - 23:55:24 10° W 00:09:52 83° S 00:17:41 10° E visible
16 Jun - 02:14:26 10° W 02:23:38 44° SSW 02:29:06 10° SE visible
16 Jun - 16:09:36 10° SSE 16:18:34 15° SE 16:27:25 10° ESE daylight
16 Jun - 18:17:03 10° SSW 18:35:08 42° SSE 18:49:56 10° E daylight
16 Jun - 20:32:50 10° WSW 20:52:26 71° SSE 21:05:08 10° E visible
16 Jun - 22:52:23 10° W 23:09:08 85° S 23:18:26 10° E visible
17 Jun - 01:12:06 10° W 01:23:58 62° SSW 01:30:33 10° ESE visible
17 Jun - 03:31:34 10° W 03:36:07 17° SW 03:39:36 10° S visible
17 Jun - 17:17:03 10° SSW 17:33:23 33° SE 17:48:16 10° E daylight
17 Jun - 19:30:44 10° SW 19:50:36 62° SSE 20:04:59 10° E daylight
17 Jun - 21:49:17 10° WSW 22:07:57 84° S 22:18:57 10° E visible
18 Jun - 00:09:24 10° W 00:23:49 75° SSW 00:31:39 10° ESE visible
18 Jun - 02:28:45 10° W 02:37:02 31° SW 02:42:19 10° SSE visible
18 Jun - 16:18:14 10° S 16:31:49 24° SE 16:45:19 10° E daylight
18 Jun - 18:29:21 10° SW 18:48:38 53° SSE 19:04:22 10° E daylight
18 Jun - 20:46:24 10° WSW 21:06:20 80° SSE 21:19:10 10° E visible
18 Jun - 23:06:23 10° W 23:23:09 83° S 23:32:29 10° ESE visible
19 Jun - 01:26:09 10° W 01:37:35 47° SSW 01:44:08 10° SE visible
19 Jun - 15:21:33 10° SSE 15:30:33 15° SE 15:39:53 10° ESE daylight
19 Jun - 17:28:45 10° SSW 17:46:41 44° SE 18:03:07 10° E daylight
19 Jun - 19:43:59 10° WSW 20:04:21 73° SSE 20:19:04 10° E visible
19 Jun - 22:03:15 10° W 22:21:58 86° S 22:33:00 10° E visible
20 Jun - 00:23:23 10° W 00:37:37 64° SSW 00:45:29 10° ESE visible
20 Jun - 02:43:37 10° W 02:50:10 20° SW 02:54:50 10° S visible
20 Jun - 16:29:06 10° SSW 16:44:56 34° SE 17:00:59 10° E daylight
20 Jun - 18:42:13 10° SW 19:02:11 65° SSE 19:18:32 10° E daylight
20 Jun - 21:00:13 10° W 21:20:18 85° S 21:33:14 10° E visible
20 Jun - 23:20:23 10° W 23:37:05 76° SSW 23:46:26 10° ESE visible
21 Jun - 01:40:25 10° W 01:50:54 34° SW 01:57:20 10° SSE visible
21 Jun - 15:30:37 10° S 15:43:33 24° SE 15:57:34 10° E daylight
21 Jun - 17:41:12 10° SW 18:00:01 55° SSE 18:17:29 10° E daylight
21 Jun - 19:57:36 10° WSW 20:18:13 81° SSE 20:33:06 10° E visible
21 Jun - 22:17:15 10° W 22:35:58 83° S 22:47:02 10° ESE visible
22 Jun - 00:37:25 10° W 00:51:10 51° SSW 00:59:03 10° SE visible
22 Jun - 03:00:19 10° WSW 03:03:05 12° SW 03:05:29 10° SW visible
22 Jun - 14:34:17 10° SSE 14:42:34 15° SE 14:51:36 10° ESE daylight
22 Jun - 16:41:01 10° SSW 16:58:03 45° SE 17:15:45 10° E daylight
22 Jun - 18:55:33 10° WSW 19:15:53 74° SSE 19:32:35 10° E daylight
22 Jun - 21:14:12 10° W 21:34:19 86° S 21:47:17 10° E visible
